Location: Buchberg
(46.9333°N, 15.8500°E)
Time: 19:33:10
(UTC+00:00)

Cosmos 1536 - Pass Details

Date: 14 July 2020
Orbit: 539 x 559 km, 82.5° (Epoch: 05 August)

Event Time Altitude Azimuth Distance (km) Brightness Sun altitude
Exits shadow 02:03:03 15° 226° (SW) 1,573 4.5 -10.3°
Maximum altitude 02:06:00 33° 286° (WNW) 944 3.8 -10.0°
Drops below altitude 10° 02:09:43 10° 352° (N) 1,848 6.1 -9.5°
Sets 02:12:03 0° 2° (N) 2,744 7.2 -9.2°
